EW1979 Weather Reports


time (UTC)temp
C
wind
direction
speed
KPH
gust
KPH
rain 1hr
cm
rain 24hr
cm
rain mn
cm
humidity
%
barometer
mb
20260509160015 24 179 0.0 0.0 0.00 0.00 0.03 64 1008.2
20260509154519 23 152 0.0 0.0 0.00 0.00 0.03 100 1008.9
20260509151606 21 152 0.0 0.0 0.00 0.00 0.03 100 1009.0
20260509144507 21 136 0.0 0.0 0.00 0.00 0.03 100 1009.5
20260509143004 21 136 0.0 0.0 0.00 0.00 0.03 100 1009.4
20260509141603 21 136 0.0 0.0 0.00 0.00 0.03 100 1009.3
20260509140007 21 136 0.0 0.0 0.00 0.00 0.03 100 1009.0
20260509134513 21 136 0.0 0.0 0.00 0.00 0.03 100 1009.0
20260509133103 21 136 0.0 0.0 0.00 0.00 0.03 100 1009.0
20260509131508 20 136 0.0 0.0 0.00 0.00 0.03 100 1009.0
20260509130108 20 136 0.0 0.0 0.00 0.00 0.03 100 1009.0
20260509124513 20 136 0.0 0.0 0.00 0.00 0.03 100 1008.7
20260509123003 21 136 0.0 0.0 0.00 0.00 0.03 100 1008.4
20260509120108 20 136 0.0 0.0 0.00 0.00 0.03 100 1008.4
20260509114512 20 136 0.0 0.0 0.00 0.00 0.03 100 1008.7
20260509113003 20 140 0.0 0.0 0.00 0.00 0.03 100 1008.6
20260509110002 20 140 0.0 0.0 0.00 0.00 0.03 100 1007.9
20260509104517 20 140 0.0 0.0 0.00 0.00 0.03 100 1008.0
20260509103103 20 140 0.0 0.0 0.00 0.00 0.00 100 1007.8
20260509101503 20 140 0.0 0.0 0.00 0.00 0.00 100 1007.6
20260509094502 20 140 0.0 0.0 0.00 0.00 0.00 100 1007.2
20260509093103 20 140 0.0 0.0 0.00 0.00 0.00 100 1006.9
20260509091507 20 140 0.0 0.0 0.00 0.00 0.00 100 1007.1
20260509090108 21 140 0.0 0.0 0.00 0.00 0.00 100 1007.0
20260509084604 21 140 0.0 0.0 0.00 0.00 0.00 100 1007.0
20260509083007 21 140 0.0 0.0 0.00 0.00 0.00 100 1007.1
20260509081603 21 140 0.0 0.0 0.00 0.00 0.00 100 1007.5
20260509074510 21 140 0.0 0.0 0.00 0.00 0.00 100 1007.2
20260509073006 21 140 0.0 0.0 0.00 0.00 0.00 100 1007.0
20260509071622 21 140 0.0 0.0 0.00 0.00 0.00 100 1007.1
20260509070104 20 140 0.0 0.0 0.00 0.00 0.00 100 1007.0
20260509064608 21 140 0.0 0.0 0.00 0.00 0.00 100 1007.1
20260509063003 20 140 0.0 0.0 0.00 0.00 0.00 100 1007.5
20260509061503 20 140 0.0 0.0 0.00 0.00 0.00 1 1007.3
20260509054513 20 140 0.0 0.0 0.00 0.00 0.00 5 1007.7
20260509053107 20 140 0.0 0.0 0.00 0.00 0.00 7 1008.1
20260509051507 20 140 0.0 0.0 0.00 0.00 0.00 9 1008.1
20260509050006 20 139 0.0 0.0 0.00 0.00 0.00 11 1008.7
20260509044603 20 138 0.0 0.0 0.00 0.00 0.00 13 1008.5
20260509043110 20 137 0.0 0.0 0.00 0.00 0.00 16 1008.2
20260509041505 20 136 0.0 0.0 0.00 0.00 0.00 18 1007.9
20260509040107 20 144 0.0 0.0 0.00 0.00 0.00 23 1007.6
20260509034507 20 147 0.0 0.0 0.00 0.00 0.00 28 1007.5
20260509033003 19 147 0.0 0.0 0.00 0.00 0.00 45 1007.3
20260509030017 20 147 0.0 0.0 0.00 0.00 0.00 49 1007.5
20260509024510 20 148 0.0 0.0 0.00 0.00 0.00 53 1007.3
20260509023105 20 148 0.0 0.0 0.00 0.00 0.00 60 1007.2
20260509021503 20 148 0.0 0.0 0.00 0.00 0.00 63 1007.2
20260509014603 20 148 0.0 0.0 0.00 0.00 0.00 72 1006.5
20260509013018 21 148 0.0 0.0 0.00 0.00 0.00 75 1006.2
20260509010133 22 148 0.0 0.0 0.00 0.00 0.00 78 1005.8
20260509004506 22 148 0.0 0.0 0.00 0.00 0.00 77 1005.8
20260509003103 22 148 0.0 0.0 0.00 0.00 0.00 77 1005.8
20260509001509 22 148 0.0 0.0 0.00 0.00 0.00 77 1005.8
20260508234602 22 147 0.0 0.0 0.00 0.00 0.00 77 1006.0
20260508233105 22 147 0.0 0.0 0.00 0.00 0.00 77 1006.0
20260508230017 23 138 0.0 0.0 0.00 0.00 0.00 76 1006.0
20260508224515 22 138 0.0 0.0 0.00 0.00 0.00 77 1006.0
20260508223022 22 138 0.0 0.0 0.00 0.00 0.00 77 1006.1
20260508220106 22 135 0.0 0.0 0.00 0.00 0.00 76 1006.2
20260508213002 22 134 0.0 0.0 0.00 0.00 0.00 77 1006.4
20260508211504 22 133 0.0 0.0 0.00 0.00 0.00 76 1006.6
20260508204603 23 118 0.0 0.0 0.00 0.00 0.00 76 1006.8
20260508194602 23 141 0.0 0.0 0.00 0.00 0.00 75 1007.0
20260508190012 23 122 0.0 0.0 0.00 0.00 0.00 75 1007.3
20260508184635 22 122 0.0 0.0 0.00 0.00 0.00 73 1007.5
20260508183118 22 122 0.0 0.0 0.00 0.00 0.00 72 1007.7
20260508181518 22 122 0.0 0.0 0.00 0.00 0.00 71 1008.1
20260508180106 22 119 0.0 0.0 0.00 0.00 0.00 69 1008.5
20260508174618 21 105 0.0 0.0 0.00 0.00 0.00 67 1008.7
20260508173003 21 86 0.0 0.0 0.00 0.00 0.00 57 1009.0
20260508171507 20 64 0.0 0.0 0.00 0.00 0.00 44 1009.2
20260508170104 20 16 0.0 0.0 0.00 0.00 0.00 18 1009.8
20260508164606 18 13 0.0 0.0 0.00 0.00 0.00 8 1010.0
20260508161604 17 11 0.0 0.0 0.00 0.00 0.00 12 1010.5